TimeEST,TemperatureF,Dew PointF,Humidity,Sea Level PressureIn,VisibilityMPH,Wind Direction,Wind SpeedMPH,Gust SpeedMPH,PrecipitationIn,Events,Conditions,WindDirDegrees,DateUTC
12:01 AM,12.2,-4.0,48,30.23,10.0,NW,5.8,23.0,N/A,,Clear,310,2004-01-07 05:01:00
12:21 AM,12.2,-2.2,53,30.22,10.0,West,16.1,23.0,N/A,,Clear,280,2004-01-07 05:21:00
12:41 AM,10.4,-5.8,48,30.22,10.0,NW,8.1,16.1,N/A,,Clear,310,2004-01-07 05:41:00
1:01 AM,10.4,-5.8,48,30.22,10.0,NW,5.8,31.1,N/A,,Clear,310,2004-01-07 06:01:00
1:21 AM,10.4,-7.6,44,30.22,10.0,NW,13.8,27.6,N/A,,Clear,310,2004-01-07 06:21:00
1:41 AM,10.4,-7.6,44,30.23,10.0,WNW,5.8,-,N/A,,Clear,290,2004-01-07 06:41:00
2:01 AM,10.4,-5.8,48,30.23,10.0,NW,8.1,26.5,N/A,,Clear,320,2004-01-07 07:01:00
2:21 AM,10.4,-5.8,48,30.22,10.0,WNW,24.2,35.7,N/A,,Clear,290,2004-01-07 07:21:00
2:41 AM,10.4,-5.8,48,30.23,10.0,WNW,9.2,35.7,N/A,,Clear,300,2004-01-07 07:41:00
3:01 AM,10.4,-5.8,48,30.22,10.0,WNW,16.1,27.6,N/A,,Clear,300,2004-01-07 08:01:00
3:21 AM,10.4,-5.8,48,30.21,10.0,WNW,20.7,35.7,N/A,,Clear,290,2004-01-07 08:21:00
3:41 AM,10.4,-5.8,48,30.22,10.0,West,15.0,33.4,N/A,,Clear,280,2004-01-07 08:41:00
4:01 AM,10.4,-5.8,48,30.22,10.0,West,12.7,27.6,N/A,,Clear,280,2004-01-07 09:01:00
4:21 AM,10.4,-5.8,48,30.21,10.0,West,17.3,31.1,N/A,,Clear,280,2004-01-07 09:21:00
4:41 AM,10.4,-5.8,48,30.20,10.0,West,21.9,35.7,N/A,,Clear,270,2004-01-07 09:41:00
5:04 AM,10.4,-7.6,44,30.21,10.0,North,6.9,23.0,N/A,,Clear,350,2004-01-07 10:04:00
5:21 AM,10.4,-7.6,44,30.21,10.0,WNW,18.4,29.9,N/A,,Clear,300,2004-01-07 10:21:00
5:41 AM,10.4,-5.8,48,30.21,10.0,WNW,19.6,42.6,N/A,,Clear,290,2004-01-07 10:41:00
6:01 AM,10.4,-7.6,44,30.20,10.0,WNW,21.9,36.8,N/A,,Clear,300,2004-01-07 11:01:00
6:21 AM,10.4,-7.6,44,30.20,10.0,WNW,15.0,39.1,N/A,,Clear,290,2004-01-07 11:21:00
6:41 AM,10.4,-5.8,48,30.19,10.0,WNW,20.7,33.4,N/A,,Clear,290,2004-01-07 11:41:00
7:01 AM,10.4,-5.8,48,30.19,10.0,WNW,25.3,38.0,N/A,,Clear,300,2004-01-07 12:01:00
7:21 AM,10.4,-5.8,48,30.20,10.0,WNW,23.0,32.2,N/A,,Clear,300,2004-01-07 12:21:00
7:42 AM,10.4,-7.6,44,30.19,10.0,WNW,26.5,43.7,N/A,,Clear,300,2004-01-07 12:42:00
8:01 AM,10.4,-7.6,44,30.21,10.0,NW,20.7,50.6,N/A,,Clear,310,2004-01-07 13:01:00
8:21 AM,10.4,-7.6,44,30.22,10.0,NW,19.6,40.3,N/A,,Clear,310,2004-01-07 13:21:00
8:42 AM,12.2,-7.6,41,30.22,10.0,WNW,31.1,52.9,N/A,,Clear,300,2004-01-07 13:42:00
9:01 AM,12.2,-9.4,38,30.23,10.0,NW,18.4,44.9,N/A,,Clear,310,2004-01-07 14:01:00
9:21 AM,14.0,-9.4,35,30.23,10.0,NW,23.0,36.8,N/A,,Clear,320,2004-01-07 14:21:00
9:42 AM,15.8,-11.2,30,30.22,10.0,NW,26.5,44.9,N/A,,Clear,310,2004-01-07 14:42:00
10:01 AM,15.8,-11.2,30,30.24,10.0,NW,17.3,31.1,N/A,,Clear,310,2004-01-07 15:01:00
10:21 AM,17.6,-9.4,30,30.26,10.0,South,10.4,25.3,N/A,,Clear,190,2004-01-07 15:21:00
10:41 AM,17.6,-2.2,42,30.27,10.0,SE,8.1,-,N/A,,Clear,130,2004-01-07 15:41:00
11:01 AM,15.8,-2.2,45,30.29,10.0,WSW,9.2,-,N/A,,Clear,250,2004-01-07 16:01:00
11:21 AM,17.6,-4.0,38,30.28,10.0,West,3.5,16.1,N/A,,Clear,270,2004-01-07 16:21:00
11:41 AM,19.4,-2.2,39,30.27,10.0,SE,4.6,-,N/A,,Clear,130,2004-01-07 16:41:00
12:01 PM,19.4,-2.2,39,30.28,10.0,Calm,Calm,-,N/A,,Clear,0,2004-01-07 17:01:00
12:22 PM,19.4,-2.2,39,30.28,10.0,West,9.2,-,N/A,,Clear,260,2004-01-07 17:22:00
12:41 PM,19.4,-4.0,36,30.28,10.0,West,9.2,-,N/A,,Clear,260,2004-01-07 17:41:00
1:01 PM,21.2,-2.2,36,30.27,10.0,SW,9.2,-,N/A,,Clear,230,2004-01-07 18:01:00
1:21 PM,21.2,-2.2,36,30.28,10.0,West,8.1,19.6,N/A,,Clear,260,2004-01-07 18:21:00
1:42 PM,21.2,-5.8,30,30.27,10.0,Calm,Calm,-,N/A,,Clear,0,2004-01-07 18:42:00
2:01 PM,23.0,-5.8,28,30.27,10.0,Calm,Calm,-,N/A,,Clear,0,2004-01-07 19:01:00
2:21 PM,23.0,-5.8,28,30.27,10.0,Calm,Calm,-,N/A,,Clear,0,2004-01-07 19:21:00
2:41 PM,23.0,-7.6,26,30.27,10.0,NNW,8.1,-,N/A,,Clear,330,2004-01-07 19:41:00
3:01 PM,24.8,-7.6,24,30.27,10.0,West,4.6,-,N/A,,Clear,270,2004-01-07 20:01:00
3:21 PM,24.8,-9.4,22,30.27,10.0,NW,4.6,-,N/A,,Clear,320,2004-01-07 20:21:00
3:41 PM,23.0,-9.4,24,30.28,10.0,North,6.9,-,N/A,,Clear,350,2004-01-07 20:41:00
4:01 PM,23.0,-9.4,24,30.28,10.0,WNW,6.9,-,N/A,,Clear,290,2004-01-07 21:01:00
4:21 PM,23.0,-7.6,26,30.28,10.0,West,9.2,-,N/A,,Clear,260,2004-01-07 21:21:00
4:41 PM,21.2,-7.6,28,30.28,10.0,West,5.8,17.3,N/A,,Clear,280,2004-01-07 21:41:00
5:02 PM,21.2,-5.8,30,30.28,10.0,West,9.2,-,N/A,,Clear,260,2004-01-07 22:02:00
5:21 PM,19.4,-5.8,33,30.28,10.0,West,10.4,-,N/A,,Clear,270,2004-01-07 22:21:00
5:42 PM,19.4,-2.2,39,30.29,10.0,West,9.2,-,N/A,,Clear,260,2004-01-07 22:42:00
6:01 PM,17.6,-0.4,45,30.29,10.0,West,12.7,16.1,N/A,,Clear,270,2004-01-07 23:01:00
6:21 PM,17.6,-0.4,45,30.29,10.0,West,12.7,-,N/A,,Clear,280,2004-01-07 23:21:00
6:41 PM,17.6,-0.4,45,30.30,10.0,West,9.2,17.3,N/A,,Clear,270,2004-01-07 23:41:00
7:01 PM,17.6,-0.4,45,30.30,10.0,West,9.2,23.0,N/A,,Clear,280,2004-01-08 00:01:00
7:21 PM,17.6,-0.4,45,30.29,10.0,West,11.5,17.3,N/A,,Clear,280,2004-01-08 00:21:00
7:43 PM,15.8,-0.4,49,30.29,10.0,WNW,5.8,-,N/A,,Clear,290,2004-01-08 00:43:00
8:01 PM,17.6,-0.4,45,30.28,10.0,West,10.4,19.6,N/A,,Clear,270,2004-01-08 01:01:00
8:21 PM,17.6,-0.4,45,30.28,10.0,West,13.8,20.7,N/A,,Clear,280,2004-01-08 01:21:00
8:41 PM,17.6,-0.4,45,30.28,10.0,West,13.8,19.6,N/A,,Clear,270,2004-01-08 01:41:00
9:01 PM,17.6,-0.4,45,30.27,10.0,West,15.0,-,N/A,,Clear,280,2004-01-08 02:01:00
9:21 PM,17.6,-2.2,42,30.26,10.0,West,12.7,-,N/A,,Clear,280,2004-01-08 02:21:00
9:41 PM,17.6,-2.2,42,30.26,10.0,West,10.4,-,N/A,,Clear,270,2004-01-08 02:41:00
10:01 PM,17.6,-2.2,42,30.26,10.0,WSW,5.8,-,N/A,,Clear,250,2004-01-08 03:01:00
10:21 PM,17.6,-7.6,32,30.27,10.0,West,5.8,-,N/A,,Clear,260,2004-01-08 03:21:00
10:42 PM,19.4,-7.6,30,30.27,10.0,West,4.6,-,N/A,,Clear,280,2004-01-08 03:42:00
11:02 PM,19.4,-11.2,25,30.27,10.0,West,16.1,-,N/A,,Mostly Cloudy,280,2004-01-08 04:02:00
11:21 PM,19.4,-11.2,25,30.26,10.0,WNW,13.8,19.6,N/A,,Mostly Cloudy,290,2004-01-08 04:21:00
11:41 PM,19.4,-14.8,21,30.26,10.0,WNW,15.0,24.2,N/A,,Scattered Clouds,290,2004-01-08 04:41:00